Weather History for KDNL - June, 2013

Change the Weather History Date:

Wednesday, June 19, 2013

  Actual Average (KAGS) Record (KAGS)
Temperature  
Mean Temperature 77 °F 79 °F  
Max Temperature 83 °F 92 °F 103 °F (1933)
Min Temperature 71 °F 67 °F 52 °F (1961)
Degree Days  
Heating Degree Days 0 0  
Month to date heating degree days 0 0  
Since 1 June heating degree days 0 0  
Since 1 July heating degree days 2100 2471  
Cooling Degree Days 12 14  
Month to date cooling degree days 262 241  
Year to date cooling degree days 556 524  
Since 1 June cooling degree days 262 241  
Growing Degree Days 28 (Base 50)    
Moisture  
Dew Point 70 °F    
Average Humidity 82    
Maximum Humidity 93    
Minimum Humidity 69    
Precipitation  
Precipitation 0.22 in 0.17 in 2.51 in (1972)
Month to date precipitation 10.13 3.04  
Year to date precipitation 28.58 20.54  
Sea Level Pressure  
Sea Level Pressure 29.98 in    
Wind  
Wind Speed 4 mph (NNE)    
Max Wind Speed 15 mph    
Max Gust Speed 18 mph    
Visibility 9 miles    
Events Rain    
T = Trace of Precipitation, MM = Missing Value Source: NWS Daily Summary

Daily Weather History Graph

Daily Weather History Graph

Search for Another Location

Airport or City:

Trip Planner

Search our weather history database for the weather conditions in past years. The results will help you decide how hot, cold, wet, or windy it might be!

Date:

Astronomy

Jun. 19, 2013 Rise Set
Actual Time 6:18 AM EDT 8:40 PM EDT
Civil Twilight 5:49 AM EDT 9:09 PM EDT
Nautical Twilight 5:13 AM EDT 9:45 PM EDT
Astronomical Twilight 4:34 AM EDT 10:24 PM EDT
Moon 4:39 PM EDT (6/19) 2:52 AM EDT (6/19)
Length of Visible Light 15h 20m
Length of Day
14h 22m
Waxing Gibbous, 80% of the Moon is Illuminated
Jun 19
Waxing Gibbous
Jun 23
Full
Jun 30
Last Quarter
Jul 8
New
Jul 15
First Quarter

Hourly Weather History & Observations

Time (EDT) Temp. Heat Index Dew Point Humidity Pressure Visibility Wind Dir Wind Speed Gust Speed Precip Events Conditions
12:53 AM 75.0 °F - 71.1 °F 87% 29.90 in 10.0 mi WSW 3.5 mph - N/A   Clear
1:53 AM 73.9 °F - 71.1 °F 91% 29.91 in 10.0 mi Calm Calm - N/A   Overcast
2:53 AM 73.9 °F - 71.1 °F 91% 29.91 in 10.0 mi Calm Calm - 0.00 in Rain Light Rain
3:48 AM 73.4 °F - 71.6 °F 94% 29.93 in 10.0 mi Variable 3.5 mph - 0.00 in Rain Light Rain
3:53 AM 73.0 °F - 71.1 °F 93% 29.91 in 6.0 mi Calm Calm - 0.01 in Rain Light Rain
4:53 AM 73.0 °F - 71.1 °F 93% 29.91 in 10.0 mi Calm Calm - 0.00 in   Overcast
5:53 AM 73.0 °F - 70.0 °F 90% 29.92 in 10.0 mi Variable 3.5 mph - N/A   Overcast
6:53 AM 73.0 °F - 70.0 °F 90% 29.94 in 10.0 mi Calm Calm - 0.00 in   Overcast
7:53 AM 73.0 °F - 70.0 °F 90% 29.95 in 10.0 mi Calm Calm - N/A   Overcast
8:46 AM 73.4 °F - 69.8 °F 88% 29.98 in 10.0 mi WNW 4.6 mph - N/A   Overcast
8:53 AM 73.9 °F - 70.0 °F 87% 29.97 in 10.0 mi WNW 4.6 mph - N/A   Overcast
9:53 AM 77.0 °F - 70.0 °F 79% 29.97 in 10.0 mi NNW 4.6 mph - N/A   Overcast
10:00 AM 77.0 °F - 69.8 °F 78% 29.99 in 10.0 mi NW 3.5 mph - N/A   Overcast
10:53 AM 78.1 °F - 69.1 °F 74% 29.99 in 10.0 mi Calm Calm - N/A   Overcast
11:26 AM 78.8 °F - 69.8 °F 74% 30.01 in 10.0 mi Calm Calm - N/A   Overcast
11:42 AM 75.2 °F - 69.8 °F 83% 30.01 in 1.8 mi WSW 3.5 mph - 0.05 in Rain Light Rain
11:50 AM 75.2 °F - 71.6 °F 89% 30.01 in 2.5 mi West 3.5 mph - 0.08 in Rain Light Rain
11:53 AM 75.0 °F - 71.1 °F 87% 30.00 in 2.0 mi SW 4.6 mph - 0.10 in Rain Rain
12:08 PM 73.4 °F - 71.6 °F 94% 30.01 in 10.0 mi SSW 3.5 mph - 0.02 in Rain Light Rain
12:53 PM 77.0 °F - 71.1 °F 82% 30.00 in 10.0 mi Calm Calm - 0.02 in   Mostly Cloudy
1:53 PM 80.1 °F 83.6 °F 71.1 °F 74% 29.98 in 10.0 mi North 4.6 mph - N/A   Scattered Clouds
2:53 PM 82.9 °F 87.5 °F 71.1 °F 67% 29.97 in 10.0 mi Variable 5.8 mph - N/A   Partly Cloudy
3:53 PM 79.0 °F - 72.0 °F 79% 29.97 in 10.0 mi NNE 10.4 mph - 0.09 in   Scattered Clouds
4:07 PM 78.8 °F - 73.4 °F 83% 29.98 in 10.0 mi NNE 9.2 mph - N/A   Mostly Cloudy
4:17 PM 78.8 °F - 73.4 °F 83% 29.98 in 10.0 mi NNE 8.1 mph - N/A   Scattered Clouds
4:53 PM 78.1 °F - 70.0 °F 76% 29.97 in 10.0 mi NNE 5.8 mph - N/A   Clear
5:53 PM 78.1 °F - 69.1 °F 74% 29.99 in 10.0 mi NNE 6.9 mph - N/A   Overcast
6:53 PM 78.1 °F - 69.1 °F 74% 29.99 in 10.0 mi ENE 5.8 mph - N/A   Mostly Cloudy
7:41 PM 77.0 °F - 69.8 °F 78% 30.02 in 10.0 mi ENE 3.5 mph - N/A   Mostly Cloudy
7:53 PM 77.0 °F - 69.1 °F 76% 30.01 in 10.0 mi ENE 5.8 mph - N/A   Mostly Cloudy
8:02 PM 77.0 °F - 69.8 °F 78% 30.03 in 10.0 mi ENE 5.8 mph - N/A   Scattered Clouds
8:53 PM 75.9 °F - 69.1 °F 79% 30.03 in 10.0 mi NE 3.5 mph - N/A   Overcast
9:53 PM 75.9 °F - 66.0 °F 71% 30.05 in 10.0 mi East 8.1 mph - N/A   Clear
10:53 PM 73.9 °F - 64.9 °F 73% 30.07 in 10.0 mi East 5.8 mph - N/A   Clear
11:53 PM 72.0 °F - 64.9 °F 78% 30.07 in 10.0 mi ENE 5.8 mph - N/A   Clear